Vertical_Velocity
-0 1 1 4 0 2 3 -15 -27 -8 -1 -9 -4 12 -3 5 4 2 1 -3 2 -4 2 -2 -1 -2 -2 0 1 5 4 -1 -2 2 -0 4 3 4 8 2 -3 6 -6 6
1 0 2 1 2 4 7 -13 -17 -2 1 4 13 3 13 3 -4 2 -1 -4 -6 -1 2 -4 -1 0 0 -1 -0 1 2 0 -1 3 -1 3 -1 3 0 4 3 6 -2 7
2 1 -2 -0 -1 -2 9 -16 -14 -3 2 -5 6 2 -4 -3 3 1 1 -4 -0 3 -3 -2 -4 -2 -1 4 1 1 0 0 1 1 0 1 0 -1 2 -5 -3 8 2 -0
7 3 3 -2 -4 -2 5 -13 -2 -5 -8 -1 1 -0 5 -1 1 -2 -9 -3 0 1 4 -3 -3 0 0 1 3 1 -3 -3 -0 1 0 -1 1 -0 -0 -7 2 -7 -0 -6
5 4 5 -0 -5 -4 7 -9 -17 -3 -1 -0 -1 3 5 1 -3 4 4 -1 4 -2 -3 3 -1 3 -2 1 0 -0 -1 -1 -0 -1 1 1 -4 -1 0 -1 -1 2 3 2
1 3 1 0 -3 -5 0 3 -0 -7 -2 2 1 -4 -4 -2 -0 -0 -2 3 -1 -1 -6 2 3 2 1 0 0 -3 -3 -1 -1 -2 -2 -2 -2 -0 0 -5 -1 -3 3 -1
-2 4 0 3 -5 2 -2 4 -4 -0 -6 -2 -4 -3 -4 -3 -4 -5 -1 -5 1 -1 -1 -2 1 1 -0 0 -0 -0 -2 -2 -2 -3 0 -4 -0 1 0 1 0 -0 0 1
-1 3 0 -0 1 0 -2 -2 -3 -3 -7 -1 -6 -6 -5 -4 -3 -0 -1 0 -1 -2 0 -4 -3 -3 -4 -4 -2 -0 1 -1 1 -1 2 2 0 -0 0 -0 -0 1 0 5
1 -0 -2 1 1 -1 0 -3 1 -5 1 -3 -4 -8 -3 -3 -1 -1 -2 -1 0 -1 -1 -3 -1 -1 -1 -0 -3 -2 -3 -4 -5 -3 -0 1 -1 -0 -2 -3 -3 -3 -2 -1
-1 2 -2 -1 0 -1 -2 -0 -2 4 0 -4 -2 -4 -5 -2 -3 -2 -2 -1 -1 -2 -2 -2 -1 -2 -2 -2 -1 -2 -1 1 -1 2 -1 -0 -1 -0 -1 -2 -2 1 -2 -1
-2 0 2 -0 -1 -0 -2 -1 1 7 1 -1 -2 -1 -3 -2 -1 -4 -2 -2 -2 -2 -3 -1 0 1 -1 -0 -1 -2 -2 -2 0 -1 -2 -5 1 -1 -1 -1 0 -2 -3 -1
-1 -2 1 -1 -1 -2 -1 -1 -1 -0 4 -1 -2 -1 -2 -3 -2 -2 -1 -3 -1 -1 -0 -1 -1 -2 -2 -1 -1 -2 -4 -3 -3 -2 -2 -2 -3 -3 -2 -2 -1 1 2 3
-2 0 1 1 1 -0 -2 1 -3 -2 -0 0 -0 -1 -1 1 0 0 0 -0 -2 -2 -1 -1 -1 -1 0 -2 -2 -2 -3 -1 -5 -2 -2 -3 -2 -2 -1 -2 -2 -1 -3 -3
6 -4 2 2 -1 -0 1 -2 -1 -2 2 -1 -1 -0 -1 1 1 1 1 1 0 -1 -0 -2 -2 -2 -0 -3 -1 -1 2 -0 -1 -2 -2 -0 -3 -2 -2 -0 -2 -3 -2 -1
-2 2 -4 -1 4 3 -2 -0 1 -2 -1 -1 -0 0 -1 -1 -2 -1 0 0 -0 -0 -0 -1 -2 -1 -1 0 -2 -6 0 -3 -4 -6 -1 -3 -2 -1 -2 -2 1 1 0 1
-7 -9 3 -1 1 -2 5 3 -1 0 -2 -2 -3 1 -3 -2 -1 -0 0 -1 -1 -1 -1 -0 -4 -0 -0 0 -6 -1 -1 -2 -1 -0 0 -2 -1 -1 -2 -1 -0 0 -0 0
-1 -3 5 0 -4 -1 -3 -1 3 -0 1 1 -2 -5 -3 -0 1 -1 -0 0 -0 0 -1 -4 -2 0 2 -6 -15 5 -0 -2 -0 0 -1 -0 0 1 1 1 -1 -1 -1 -1
-1 3 -6 3 4 -0 -4 -1 -1 1 0 -3 -2 1 0 -2 -4 -1 0 -1 0 -4 -1 -3 -1 0 2 -16 -0 -2 -3 -3 -2 -1 -3 -2 0 1 2 0 0 -1 -2 -2
-4 -1 5 -2 2 -1 3 -1 -2 0 -1 1 1 -4 -2 2 3 -2 -2 0 -2 1 -3 -0 -0 -0 -18 3 -0 1 1 1 1 1 0 -1 -1 -1 -2 -1 -1 -1 -2 -1
-2 5 10 0 -2 2 4 1 -4 -2 -4 -3 -7 2 0 -0 -2 5 7 -0 -4 0 -1 2 -3 -26 11 -0 0 -0 0 1 4 2 2 1 -1 -2 -2 -1 -0 -0 -0 -0
2 0 -5 3 -1 1 -2 -1 2 -1 1 4 3 2 -1 -3 -0 -0 1 2 2 -2 0 1 1 -15 2 -5 -0 -0 1 0 -0 3 -0 1 0 -0 0 -0 -1 -0 0 -1
4 1 -2 -8 2 -3 -5 4 3 2 -5 -3 2 2 3 4 1 -1 1 -3 1 2 -0 -5 -6 -1 3 0 2 -1 -1 0 0 -1 -0 -0 2 1 0 -1 -0 -0 0 -1
-0 2 -1 -4 -5 6 1 -3 -6 0 5 -2 -5 -5 -2 2 2 -2 -2 -0 1 -1 2 -5 -13 -6 -3 2 1 -0 -1 -2 -2 1 -2 -1 -0 0 0 0 0 0 1 -0
1 -3 0 -9 -5 1 -5 7 3 -6 -1 4 6 -0 -7 -2 0 1 -4 -1 -1 -1 -6 -7 7 1 -2 -2 0 -0 1 -1 -4 3 0 -1 1 -1 0 1 0 -0 0 1
0 -1 -2 -4 -7 -6 2 1 1 5 -1 -3 -5 -3 -4 -0 2 5 1 -1 -3 -4 -1 1 2 5 2 -1 -0 -1 -1 -0 -2 -2 -0 -2 -0 -1 -0 0 -2 -0 -0 1
-3 -6 2 -2 -2 -6 -0 4 1 2 5 1 2 2 -2 -3 -4 -2 1 0 -6 -0 0 2 0 1 3 0 -0 1 1 1 -0 -2 -1 -2 -3 -1 -2 -1 -0 -1 -0 0
-10 -11 5 -5 0 -4 -1 2 4 1 -2 2 6 -7 -3 1 -0 -6 -11 -15 13 7 -2 1 2 2 1 1 0 0 0 1 2 -0 -0 -1 -3 -2 -3 -1 -1 -2 -1 -2
Height
2995 2990 2985 2981 2977 2975 2979 2978 2980 2990 2995 2999 3001 3003 3004 3008 3011 3013 3015 3017 3019 3021 3024 3026 3027 3027 3027 3027 3028 3028 3028 3028 3028 3028 3026 3024 3022 3021 3018 3017 3019 3016 3021 3037
2999 2994 2991 2989 2987 2987 2987 2986 2988 2997 3000 3004 3006 3009 3011 3013 3015 3016 3018 3020 3022 3025 3027 3028 3030 3029 3029 3029 3029 3029 3029 3029 3028 3029 3030 3028 3027 3024 3021 3020 3020 3021 3022 3038
3003 2998 2994 2992 2993 2993 2996 2994 2996 3004 3007 3008 3011 3015 3017 3018 3019 3020 3021 3024 3026 3028 3029 3030 3032 3032 3032 3031 3030 3030 3029 3029 3030 3032 3033 3033 3031 3028 3026 3024 3025 3028 3029 3034
3007 3003 2998 2996 2997 3000 3002 3000 3004 3007 3012 3013 3017 3020 3021 3020 3022 3025 3026 3028 3029 3031 3033 3035 3035 3035 3034 3033 3033 3032 3032 3033 3033 3034 3034 3034 3033 3031 3030 3028 3030 3030 3035 3035
3011 3007 3004 3000 3001 3004 3008 3006 3007 3013 3015 3018 3021 3023 3024 3025 3027 3028 3031 3031 3032 3032 3033 3036 3037 3037 3036 3035 3035 3035 3035 3035 3035 3035 3035 3035 3035 3034 3034 3034 3034 3036 3038 3039
3016 3012 3010 3006 3006 3009 3011 3013 3013 3018 3020 3022 3025 3027 3028 3029 3030 3031 3032 3033 3033 3034 3035 3037 3038 3038 3037 3037 3037 3037 3036 3036 3036 3037 3037 3037 3038 3037 3036 3037 3038 3039 3040 3041
3020 3018 3015 3013 3012 3015 3015 3017 3017 3021 3023 3026 3027 3029 3031 3031 3032 3033 3034 3034 3036 3038 3038 3038 3039 3040 3039 3039 3038 3038 3037 3037 3037 3038 3038 3041 3040 3038 3038 3039 3039 3040 3040 3040
3022 3022 3020 3018 3017 3017 3019 3021 3020 3024 3025 3028 3031 3033 3034 3035 3036 3036 3037 3038 3039 3039 3040 3040 3041 3041 3041 3040 3039 3039 3039 3038 3039 3038 3038 3040 3039 3040 3040 3039 3040 3040 3040 3040
3024 3025 3023 3021 3020 3019 3021 3023 3025 3027 3030 3033 3034 3035 3037 3038 3039 3039 3040 3040 3041 3041 3041 3041 3043 3042 3042 3042 3040 3040 3040 3039 3041 3040 3040 3039 3039 3040 3040 3039 3039 3039 3039 3039
3026 3027 3027 3024 3023 3023 3024 3027 3029 3031 3032 3033 3035 3036 3037 3038 3039 3040 3041 3042 3043 3043 3042 3043 3043 3043 3043 3042 3041 3040 3039 3039 3039 3040 3040 3039 3037 3038 3038 3039 3043 3037 3037 3036
3030 3029 3030 3030 3028 3028 3029 3030 3032 3035 3035 3035 3037 3038 3039 3040 3041 3041 3044 3045 3044 3043 3044 3044 3044 3044 3043 3043 3042 3041 3041 3040 3039 3039 3038 3039 3037 3037 3039 3038 3035 3035 3034 3034
3030 3030 3031 3032 3033 3033 3032 3033 3033 3035 3038 3038 3038 3039 3040 3041 3043 3044 3043 3044 3043 3044 3044 3045 3044 3043 3043 3042 3042 3041 3040 3040 3039 3039 3037 3036 3036 3036 3035 3034 3034 3034 3033 3032
3034 3030 3033 3033 3033 3034 3035 3034 3035 3037 3038 3039 3039 3039 3041 3041 3042 3043 3045 3044 3044 3044 3044 3044 3043 3043 3042 3041 3040 3038 3037 3037 3036 3036 3034 3033 3033 3032 3032 3031 3031 3030 3029 3027
3039 3033 3032 3034 3036 3035 3035 3037 3037 3038 3039 3039 3040 3039 3040 3040 3041 3042 3042 3042 3042 3043 3042 3042 3041 3041 3039 3037 3036 3034 3035 3034 3032 3031 3030 3030 3029 3029 3028 3028 3026 3025 3024 3022
3038 3039 3034 3034 3033 3036 3036 3036 3037 3037 3041 3038 3038 3039 3039 3039 3040 3040 3040 3041 3041 3040 3040 3039 3039 3038 3036 3033 3030 3027 3028 3027 3027 3026 3027 3026 3026 3025 3024 3023 3022 3021 3019 3017
3037 3036 3039 3035 3035 3034 3034 3035 3037 3037 3036 3036 3036 3036 3035 3036 3037 3037 3038 3038 3038 3038 3037 3036 3035 3035 3034 3029 3023 3024 3023 3023 3023 3023 3023 3022 3022 3021 3020 3018 3017 3015 3013 3011
3034 3034 3036 3038 3037 3035 3035 3036 3034 3034 3034 3035 3034 3032 3031 3031 3032 3033 3034 3034 3034 3034 3033 3031 3030 3031 3030 3022 3017 3019 3019 3018 3018 3018 3018 3018 3018 3017 3015 3013 3012 3009 3007 3005
3031 3033 3033 3033 3034 3036 3035 3035 3034 3033 3033 3034 3032 3029 3029 3029 3029 3030 3030 3029 3029 3028 3027 3025 3024 3024 3022 3012 3010 3010 3011 3012 3013 3014 3014 3014 3013 3012 3010 3009 3006 3004 3002 3000
3028 3028 3029 3029 3030 3031 3033 3033 3032 3032 3035 3030 3026 3026 3027 3025 3026 3026 3027 3027 3025 3024 3020 3020 3019 3013 3008 3007 3007 3007 3008 3009 3009 3009 3009 3008 3008 3006 3005 3003 3001 2998 2996 2993
3025 3026 3026 3026 3028 3029 3031 3031 3030 3028 3026 3023 3022 3022 3023 3025 3024 3024 3026 3024 3023 3018 3016 3013 3006 2998 3002 3003 3004 3005 3005 3005 3005 3004 3004 3003 3002 3001 3000 2998 2996 2993 2990 2986
3021 3023 3025 3025 3026 3027 3028 3029 3025 3023 3020 3017 3015 3017 3019 3022 3023 3024 3025 3022 3019 3015 3013 3010 3000 2993 2997 2997 2999 3001 3002 3001 3000 3001 3001 3000 2999 2997 2995 2993 2990 2987 2983 2980
3016 3019 3020 3022 3023 3024 3025 3020 3017 3014 3015 3014 3014 3014 3016 3018 3021 3022 3022 3020 3017 3011 3009 3007 2998 2995 2994 2995 2997 2998 2998 2998 2997 2997 2997 2996 2994 2993 2990 2988 2985 2981 2977 2973
3012 3014 3017 3019 3021 3016 3010 3007 3009 3010 3008 3009 3010 3013 3015 3016 3019 3020 3020 3016 3013 3009 3004 2997 2993 2995 2994 2993 2995 2996 2996 2995 2995 2994 2993 2991 2990 2988 2985 2983 2979 2976 2971 2965
3008 3011 3010 3012 3010 3007 3003 3004 3004 3007 3008 3009 3009 3008 3010 3012 3015 3015 3014 3013 3010 3005 3000 2990 2989 2989 2990 2992 2992 2993 2993 2992 2991 2990 2989 2987 2985 2983 2980 2977 2974 2970 2965 2959
3003 3003 2999 2995 2999 3001 3002 3002 3002 3002 3004 3006 3008 3008 3009 3010 3012 3010 3007 3005 3002 2999 2993 2991 2989 2988 2989 2990 2990 2990 2989 2988 2987 2986 2985 2983 2980 2978 2975 2971 2967 2963 2957 2951
2994 2992 2987 2990 2993 2996 2999 3000 3000 3000 3000 3001 3003 3003 3004 3005 3006 3004 3001 2997 2993 2993 2993 2991 2989 2989 2988 2987 2987 2986 2985 2983 2982 2981 2979 2978 2975 2973 2969 2965 2961 2956 2950 2943
2979 2977 2978 2984 2989 2992 2995 2995 2996 2997 2998 2998 2998 2998 2998 2998 2996 2995 2994 2991 2992 2990 2990 2989 2988 2987 2986 2985 2984 2982 2981 2979 2977 2976 2974 2972 2970 2967 2963 2959 2955 2949 2943 2937